DON24 EGNX-EGBT

Flight info

Callsign DON24
Flight time 0h 34m
Altitude 2000
Route VFR DEP TO SOUTH ROUTING TURWESTON
Aircraft P28A/L-V/N

Departure

Time 2026-05-06 10:42
Airport East Midlands Airport (EGNX)

Arrival

Time 2026-05-06 11:16
Airport Turweston Aerodrome (EGBT)
Time Latitude Longitude Altitude Speed Heading
2026-05-06 10:18 52.82684 -1.33879 294 ft 0 kts 56°
2026-05-06 10:36 52.82707 -1.33834 294 ft 10 kts 54°
2026-05-06 10:36 52.82733 -1.33780 296 ft 9 kts 51°
2026-05-06 10:36 52.82772 -1.33708 294 ft 11 kts 10°
2026-05-06 10:37 52.82826 -1.33711 294 ft 11 kts 353°
2026-05-06 10:37 52.82897 -1.33726 296 ft 10 kts
2026-05-06 10:37 52.82955 -1.33729 299 ft 6 kts 355°
2026-05-06 10:37 52.82972 -1.33730 299 ft 0 kts 356°
2026-05-06 10:40 52.82995 -1.33730 299 ft 8 kts 358°
2026-05-06 10:40 52.83078 -1.33714 300 ft 12 kts 52°
2026-05-06 10:40 52.83086 -1.33645 302 ft 12 kts 91°
2026-05-06 10:41 52.83094 -1.33213 304 ft 59 kts 81°
2026-05-06 10:41 52.83132 -1.32502 464 ft 64 kts 74°
2026-05-06 10:41 52.83218 -1.31764 649 ft 67 kts 69°
2026-05-06 10:41 52.83291 -1.30937 897 ft 76 kts 77°
2026-05-06 10:42 52.83247 -1.30043 1244 ft 85 kts 120°
2026-05-06 10:42 52.82670 -1.29918 1522 ft 92 kts 201°
2026-05-06 10:42 52.82086 -1.30273 1759 ft 92 kts 200°
2026-05-06 10:42 52.81457 -1.30584 1852 ft 99 kts 194°
2026-05-06 10:43 52.80778 -1.30794 1884 ft 101 kts 187°
2026-05-06 10:43 52.80076 -1.30614 1941 ft 104 kts 158°
2026-05-06 10:43 52.79386 -1.30174 2026 ft 108 kts 155°
2026-05-06 10:44 52.77968 -1.29203 2111 ft 110 kts 158°
2026-05-06 10:44 52.77212 -1.28861 2070 ft 114 kts 162°
2026-05-06 10:44 52.76453 -1.28490 2109 ft 114 kts 161°
2026-05-06 10:44 52.75684 -1.28138 2154 ft 114 kts 163°
2026-05-06 10:45 52.74947 -1.27687 2193 ft 114 kts 139°
2026-05-06 10:45 52.74518 -1.26633 2205 ft 112 kts 112°
2026-05-06 10:45 52.74184 -1.25487 2209 ft 110 kts 109°
2026-05-06 10:45 52.73890 -1.24333 2226 ft 108 kts 107°
2026-05-06 10:46 52.73647 -1.23170 2256 ft 106 kts 101°
2026-05-06 10:46 52.73415 -1.21994 2224 ft 109 kts 106°
2026-05-06 10:46 52.73144 -1.20832 2223 ft 110 kts 109°
2026-05-06 10:46 52.72939 -1.20168 2186 ft 112 kts 123°
2026-05-06 10:47 52.72754 -1.19835 2156 ft 113 kts 130°
2026-05-06 10:47 52.72228 -1.18898 2166 ft 110 kts 128°
2026-05-06 10:48 52.71739 -1.17909 2109 ft 112 kts 122°
2026-05-06 10:48 52.71312 -1.16886 2049 ft 110 kts 120°
2026-05-06 10:48 52.70845 -1.15850 1956 ft 112 kts 124°
2026-05-06 10:48 52.70374 -1.14861 1936 ft 108 kts 121°
2026-05-06 10:49 52.69976 -1.13778 1911 ft 108 kts 113°
2026-05-06 10:49 52.69573 -1.12734 1962 ft 109 kts 133°
2026-05-06 10:49 52.68894 -1.12227 1999 ft 110 kts 169°
2026-05-06 10:49 52.68140 -1.11982 2012 ft 107 kts 162°
2026-05-06 10:50 52.67398 -1.11928 1924 ft 113 kts 201°
2026-05-06 10:50 52.66792 -1.12658 1942 ft 106 kts 229°
2026-05-06 10:50 52.66235 -1.13469 1909 ft 112 kts 217°
2026-05-06 10:50 52.65541 -1.13976 1941 ft 108 kts 195°
2026-05-06 10:51 52.64748 -1.13938 1907 ft 108 kts 191°
2026-05-06 10:51 52.64046 -1.14311 1916 ft 107 kts 188°
2026-05-06 10:51 52.63306 -1.14393 1944 ft 107 kts 182°
2026-05-06 10:51 52.62543 -1.14366 1997 ft 108 kts 176°
2026-05-06 10:52 52.61786 -1.14270 1980 ft 112 kts 174°
2026-05-06 10:52 52.61031 -1.14119 2047 ft 105 kts 169°
2026-05-06 10:52 52.60358 -1.13882 2257 ft 99 kts 161°
2026-05-06 10:52 52.59668 -1.13603 2384 ft 105 kts 167°
2026-05-06 10:53 52.58936 -1.13454 2552 ft 106 kts 175°
2026-05-06 10:53 52.58212 -1.13344 2706 ft 108 kts 172°
2026-05-06 10:53 52.57470 -1.13192 2707 ft 105 kts 171°
2026-05-06 10:53 52.56757 -1.13018 2767 ft 105 kts 169°
2026-05-06 10:54 52.56031 -1.12801 2756 ft 109 kts 167°
2026-05-06 10:54 52.55311 -1.12522 2744 ft 110 kts 176°
2026-05-06 10:54 52.54552 -1.12567 2764 ft 110 kts 181°
2026-05-06 10:54 52.53803 -1.12548 2852 ft 107 kts 173°
2026-05-06 10:55 52.53062 -1.12369 2846 ft 110 kts 169°
2026-05-06 10:55 52.52323 -1.12103 2890 ft 108 kts 162°
2026-05-06 10:55 52.51631 -1.11634 2918 ft 108 kts 152°
2026-05-06 10:55 52.50947 -1.11127 2976 ft 107 kts 153°
2026-05-06 10:56 52.50218 -1.10794 2995 ft 112 kts 169°
2026-05-06 10:56 52.49452 -1.10582 3018 ft 111 kts 168°
2026-05-06 10:56 52.48679 -1.10409 3021 ft 112 kts 172°
2026-05-06 10:56 52.47909 -1.10248 3029 ft 112 kts 173°
2026-05-06 10:57 52.47153 -1.10086 3026 ft 111 kts 172°
2026-05-06 10:57 52.46370 -1.09970 3026 ft 112 kts 175°
2026-05-06 10:57 52.45596 -1.09904 3049 ft 111 kts 178°
2026-05-06 10:57 52.44820 -1.09877 3046 ft 112 kts 180°
2026-05-06 10:58 52.44036 -1.09937 3046 ft 113 kts 186°
2026-05-06 10:58 52.43277 -1.10048 3091 ft 110 kts 186°
2026-05-06 10:58 52.42527 -1.10196 2800 ft 112 kts 186°
2026-05-06 10:58 52.41710 -1.10324 2569 ft 116 kts 185°
2026-05-06 10:59 52.40890 -1.10440 2519 ft 117 kts 185°
2026-05-06 10:59 52.40083 -1.10577 2498 ft 115 kts 187°
2026-05-06 10:59 52.39292 -1.10730 2488 ft 113 kts 188°
2026-05-06 10:59 52.38521 -1.10909 2466 ft 111 kts 189°
2026-05-06 11:00 52.37763 -1.11080 2512 ft 107 kts 181°
2026-05-06 11:00 52.37013 -1.10904 2543 ft 110 kts 167°
2026-05-06 11:00 52.36270 -1.10609 2574 ft 109 kts 164°
2026-05-06 11:00 52.35554 -1.10273 2603 ft 109 kts 161°
2026-05-06 11:01 52.34824 -1.09875 2619 ft 111 kts 157°
2026-05-06 11:01 52.34140 -1.09278 2601 ft 111 kts 144°
2026-05-06 11:01 52.33469 -1.08626 2611 ft 111 kts 145°
2026-05-06 11:01 52.32794 -1.07967 2576 ft 114 kts 147°
2026-05-06 11:02 52.32127 -1.07310 2580 ft 112 kts 145°
2026-05-06 11:02 52.31474 -1.06609 2582 ft 111 kts 141°
2026-05-06 11:02 52.30837 -1.05881 2582 ft 112 kts 146°
2026-05-06 11:02 52.30155 -1.05293 2570 ft 113 kts 150°
2026-05-06 11:03 52.29482 -1.04652 2572 ft 111 kts 146°
2026-05-06 11:03 52.28783 -1.04097 2577 ft 112 kts 153°
2026-05-06 11:03 52.28070 -1.03586 2597 ft 112 kts 155°
2026-05-06 11:03 52.27351 -1.03087 2584 ft 113 kts 154°
2026-05-06 11:04 52.26638 -1.02536 2597 ft 114 kts 153°
2026-05-06 11:04 52.25909 -1.02082 2617 ft 113 kts 167°
2026-05-06 11:04 52.25119 -1.01833 2585 ft 114 kts 169°
2026-05-06 11:04 52.24351 -1.01616 2576 ft 112 kts 169°
2026-05-06 11:05 52.23575 -1.01401 2558 ft 113 kts 168°
2026-05-06 11:05 52.22803 -1.01189 2562 ft 112 kts 169°
2026-05-06 11:05 52.22018 -1.00974 2517 ft 113 kts 169°
2026-05-06 11:05 52.21256 -1.00736 2588 ft 111 kts 167°
2026-05-06 11:06 52.20742 -1.00599 2545 ft 115 kts 170°
2026-05-06 11:06 52.19695 -1.00386 2586 ft 113 kts 179°
2026-05-06 11:06 52.18895 -1.00475 2589 ft 116 kts 184°
2026-05-06 11:06 52.18372 -1.00530 2629 ft 113 kts 183°
2026-05-06 11:07 52.17574 -1.00609 2599 ft 115 kts 185°
2026-05-06 11:07 52.16778 -1.00728 2582 ft 114 kts 185°
2026-05-06 11:07 52.15993 -1.00780 2585 ft 114 kts 180°
2026-05-06 11:07 52.15192 -1.00822 2555 ft 115 kts 182°
2026-05-06 11:08 52.14404 -1.00876 2575 ft 112 kts 181°
2026-05-06 11:08 52.13606 -1.00951 2525 ft 117 kts 184°
2026-05-06 11:08 52.12818 -1.01007 2580 ft 113 kts 180°
2026-05-06 11:08 52.12025 -1.01041 2541 ft 115 kts 183°
2026-05-06 11:09 52.11218 -1.01204 2515 ft 114 kts 189°
2026-05-06 11:09 52.10442 -1.01398 2498 ft 114 kts 188°
2026-05-06 11:09 52.09657 -1.01721 2465 ft 115 kts 196°
2026-05-06 11:09 52.08910 -1.02136 2479 ft 113 kts 203°
2026-05-06 11:10 52.08177 -1.02580 2452 ft 114 kts 198°
2026-05-06 11:10 52.07377 -1.02519 2426 ft 114 kts 162°
2026-05-06 11:10 52.06902 -1.01606 2352 ft 112 kts 92°
2026-05-06 11:10 52.07254 -1.00689 2378 ft 97 kts 17°
2026-05-06 11:11 52.07829 -1.01143 2302 ft 104 kts 303°
2026-05-06 11:11 52.07737 -1.02265 2379 ft 108 kts 236°
2026-05-06 11:11 52.07019 -1.02707 2358 ft 114 kts 191°
2026-05-06 11:11 52.06512 -1.03609 2157 ft 107 kts 251°
2026-05-06 11:12 52.06223 -1.04717 1893 ft 109 kts 253°
2026-05-06 11:12 52.05943 -1.05827 1712 ft 106 kts 252°
2026-05-06 11:12 52.05642 -1.06910 1544 ft 104 kts 251°
2026-05-06 11:12 52.05331 -1.07946 1344 ft 103 kts 250°
2026-05-06 11:13 52.04996 -1.08988 1109 ft 104 kts 245°
2026-05-06 11:13 52.04481 -1.09779 1033 ft 105 kts 207°
2026-05-06 11:13 52.03802 -1.09741 998 ft 98 kts 141°
2026-05-06 11:13 52.03642 -1.08818 1039 ft 86 kts 76°
2026-05-06 11:14 52.03773 -1.07853 1100 ft 85 kts 66°
2026-05-06 11:14 52.04177 -1.07443 1273 ft 81 kts 355°
2026-05-06 11:14 52.04722 -1.07561 1494 ft 82 kts 353°
2026-05-06 11:14 52.05173 -1.08180 1507 ft 96 kts 291°
2026-05-06 11:15 52.05175 -1.09269 1583 ft 99 kts 275°
2026-05-06 11:15 52.05120 -1.10376 1727 ft 96 kts 271°
2026-05-06 11:15 52.05050 -1.11453 1462 ft 100 kts 269°
2026-05-06 11:15 52.04916 -1.12493 1258 ft 94 kts 241°
2026-05-06 11:16 52.04338 -1.12617 1047 ft 91 kts 138°
2026-05-06 11:16 52.04050 -1.11790 703 ft 78 kts 90°
2026-05-06 11:16 52.04055 -1.10980 508 ft 65 kts 80°
2026-05-06 11:16 52.04068 -1.10331 439 ft 41 kts 86°
2026-05-06 11:17 52.04046 -1.10186 438 ft 8 kts 185°
2026-05-06 11:17 52.03998 -1.10235 432 ft 11 kts 224°
2026-05-06 11:17 52.03941 -1.10293 436 ft 8 kts 186°
2026-05-06 11:17 52.03929 -1.10267 428 ft 1 kts 20°
2026-05-06 11:18 52.03934 -1.10272 429 ft 0 kts 297°